Regional Weather Roundup
Issued by NWS

Home | Current Version | Previous Version | Graphics & Text | Print | Product List | Glossary On
Versions: 1 2 3 4 5 6 7 8 9 10 11 12 13 14 15 16 17 18 19 20 21 22 23 24 25 26 27 28 29 30 31 32 33 34 35 36 37 38 39 40 41 42 43 44 45 46 47 48 49 50
000
ASUS43 KTOP 200059
RWRKS

WEATHER ROUNDUP FOR KANSAS
NATIONAL WEATHER SERVICE GOODLAND KS
800 PM CDT FRI SEP 19 2014

NOTE:  "FAIR" INDICATES FEW OR NO CLOUDS BELOW 12,000 FEET WITH NO
SIGNIFICANT WEATHER AND/OR OBSTRUCTIONS TO VISIBILITY.

KSZ001>006-013>018-027>032-041>047-200200-
NORTHWEST KANSAS

CITY           SKY/WX    TMP DP  RH WIND       PRES   REMARKS
GOODLAND       CLEAR     79  60  52 S16       29.89R
HAYS           PTCLDY    79  61  53 S10       29.88R
HILL CITY      PTCLDY    82  59  45 S10       29.85R
RUSSELL        PTCLDY    77  63  61 S12       29.86R
$$

KSZ061>065-074>080-084>089-200200-
SOUTHWEST KANSAS

CITY           SKY/WX    TMP DP  RH WIND       PRES   REMARKS
DODGE CITY     CLEAR     80  56  43 S14       29.92S
ELKHART          N/A     75  60  59 S16         N/A
GARDEN CITY    CLEAR     78  58  49 S13       29.90S
GREAT BEND     CLEAR     81  59  47 S13       29.89R
LIBERAL        MOCLDY    81  57  44 S14G20    29.95R
$$

KSZ066>073-081>083-090>101-200200-
SOUTHEAST KANSAS

CITY           SKY/WX    TMP DP  RH WIND       PRES   REMARKS
CHANUTE        MOCLDY    71  69  93 SE7       29.97S FOG
COFFEYVILLE    CLEAR     71  68  90 SE3       29.96S
HUTCHINSON     CLEAR     82  62  50 SE14      29.90S
NEWTON         CLEAR     79  61  53 S12       29.95S
PARSONS        CLEAR     69  68  96 CALM      29.98S FOG
WICHITA INTL   CLEAR     81  65  58 SE14      29.92R
WICHITA JABRA  CLEAR     79  66  64 S10       29.92S
WINFIELD       CLEAR     77  67  71 SE9       29.95S
$$

KSZ007>012-019>026-033>040-048>060-102>105-200200-
NORTHEAST KANSAS

CITY           SKY/WX    TMP DP  RH WIND       PRES   REMARKS
CONCORDIA      CLEAR     78  66  66 S10       29.84S
EMPORIA        CLEAR     71  68  90 S10       29.94S
LAWRENCE       CLEAR     74  67  78 S10       29.92F
MANHATTAN      CLEAR     77  69  76 S12G21    29.87S
OLATHE IND     CLEAR     72  67  84 S7        29.95S
OLATHE EXE     PTCLDY    73  68  84 S8        29.94S
SALINA         CLEAR     80  63  55 S7        29.87R
TOPEKA BILLARD CLEAR     75  70  84 S10       29.91S
TOPEKA FORBES  CLEAR     72  67  84 S10       29.92S
$$


USA.gov is the U.S. government's official web portal to all federal, state and local government web resources and services.